This is the latest recevied weather packets stored in our database for station/object W7BTL-13. If no packets are shown the sender has not sent any weather packets the latest 10 day(s).
| Time | Temp. | Humidity | Pressure | Rain* | Wind** | Luminosity | Snow |
|---|---|---|---|---|---|---|---|
| 1788571802 | 26.11° C | 57% | 1013.2 hPa | - | - | - | - |
| 1788571503 | 26.11° C | 56% | 1013.2 hPa | - | - | - | - |
| 1788571202 | 26.11° C | 55% | 1013.2 hPa | - | - | - | - |
| 1788570902 | 26.67° C | 55% | 1013.2 hPa | - | - | - | - |
| 1788570634 | 26.67° C | 54% | - | - | - | - | - |
| 1788570634 | 26.67° C | 54% | 1013.2 hPa | - | - | - | - |
| 1788570302 | 27.22° C | 53% | 1013.2 hPa | - | - | - | - |
| 1788570002 | 28.33° C | 49% | 1013.2 hPa | - | - | - | - |
| 1788569702 | 28.33° C | 43% | 1013.2 hPa | - | - | - | - |
| 1788569402 | 28.33° C | 44% | 1013.2 hPa | - | - | - | - |
| 1788569102 | 28.89° C | 41% | 1013.2 hPa | - | - | - | - |
| 1788568802 | 28.33° C | 42% | 1013.2 hPa | - | - | - | - |
| 1788568502 | 28.89° C | 41% | 1013.2 hPa | - | - | - | - |
| 1788568202 | 28.89° C | 41% | 1013.2 hPa | - | - | - | - |
| 1788567902 | 28.89° C | 39% | 1013.2 hPa | - | - | - | - |
| 1788567602 | 28.33° C | 40% | 1013.2 hPa | - | - | - | - |
| 1788567303 | 28.33° C | 40% | 1013.2 hPa | - | - | - | - |
| 1788567002 | 28.89° C | 40% | 1013.2 hPa | - | - | - | - |
| 1788566703 | 28.89° C | 41% | 1013.2 hPa | - | - | - | - |
| 1788566402 | 28.89° C | 42% | 1013.2 hPa | - | - | - | - |
| 1788566102 | 28.89° C | 42% | 1013.2 hPa | - | - | - | - |
| 1788565802 | 29.44° C | 42% | 1013.2 hPa | - | - | - | - |
| 1788565502 | 30° C | 40% | 1013.2 hPa | - | - | - | - |
| 1788565202 | 30° C | 39% | 1013.2 hPa | - | - | - | - |
| 1788564902 | 30° C | 39% | 1013.2 hPa | - | - | - | - |
* Rain since midnight (hover to see other rain measurements)
** Current wind speed in m/s (hover to see current wind gust speed)